Time,TemperatureF,DewpointF,PressureIn,WindDirection,WindDirectionDegrees,WindSpeedMPH,WindSpeedGustMPH,Humidity,HourlyPrecipIn,Conditions,Clouds,dailyrainin,SoftwareType,DateUTC
2013-12-24 00:11:00,3.9,-1.0,30.61,WNW,298,1.0,3.0,79,0.00,,,0.00,weatherlink.com 1.10,2013-12-24 06:11:00,
2013-12-24 00:27:00,3.7,-1.0,30.61,WNW,301,2.0,3.0,80,0.00,,,0.00,weatherlink.com 1.10,2013-12-24 06:27:00,
2013-12-24 00:41:00,3.4,-2.0,30.61,WNW,298,1.0,4.0,79,0.00,,,0.00,weatherlink.com 1.10,2013-12-24 06:41:00,
2013-12-24 00:56:00,3.3,-2.0,30.61,WNW,287,3.0,4.0,79,0.00,,,0.00,weatherlink.com 1.10,2013-12-24 06:56:00,
2013-12-24 01:12:00,3.1,-2.0,30.60,NW,304,1.0,3.0,79,0.00,,,0.00,weatherlink.com 1.10,2013-12-24 07:12:00,
2013-12-24 01:26:00,2.9,-2.0,30.60,WNW,300,0.0,3.0,80,0.00,,,0.00,weatherlink.com 1.10,2013-12-24 07:26:00,
2013-12-24 01:41:00,2.8,-3.0,30.61,West,278,1.0,4.0,78,0.00,,,0.00,weatherlink.com 1.10,2013-12-24 07:41:00,
2013-12-24 01:57:00,2.6,-3.0,30.61,West,270,0.0,6.0,79,0.00,,,0.00,weatherlink.com 1.10,2013-12-24 07:57:00,
2013-12-24 02:13:00,2.4,-3.0,30.62,West,262,4.0,5.0,78,0.00,,,0.00,weatherlink.com 1.10,2013-12-24 08:13:00,
2013-12-24 02:27:00,2.2,-3.0,30.62,WNW,301,1.0,3.0,79,0.00,,,0.00,weatherlink.com 1.10,2013-12-24 08:27:00,
2013-12-24 02:43:00,1.9,-3.0,30.62,WNW,286,0.0,2.0,80,0.00,,,0.00,weatherlink.com 1.10,2013-12-24 08:43:00,
2013-12-24 02:57:00,1.7,-3.0,30.62,WNW,290,1.0,3.0,79,0.00,,,0.00,weatherlink.com 1.10,2013-12-24 08:57:00,
2013-12-24 03:13:00,1.6,-4.0,30.62,WNW,284,1.0,3.0,78,0.00,,,0.00,weatherlink.com 1.10,2013-12-24 09:13:00,
2013-12-24 03:28:00,1.4,-4.0,30.62,NW,308,1.0,3.0,78,0.00,,,0.00,weatherlink.com 1.10,2013-12-24 09:28:00,
2013-12-24 03:43:00,1.1,-5.0,30.62,WNW,297,1.0,5.0,77,0.00,,,0.00,weatherlink.com 1.10,2013-12-24 09:43:00,
2013-12-24 03:58:00,0.9,-4.0,30.61,WNW,288,1.0,3.0,78,0.00,,,0.00,weatherlink.com 1.10,2013-12-24 09:58:00,
2013-12-24 04:12:00,0.7,-5.0,30.62,WNW,297,1.0,3.0,77,0.00,,,0.00,weatherlink.com 1.10,2013-12-24 10:12:00,
2013-12-24 04:28:00,0.5,-5.0,30.62,West,271,1.0,4.0,78,0.00,,,0.00,weatherlink.com 1.10,2013-12-24 10:28:00,
2013-12-24 04:43:00,0.2,-5.0,30.62,West,274,1.0,3.0,78,0.00,,,0.00,weatherlink.com 1.10,2013-12-24 10:43:00,
2013-12-24 04:59:00,0.0,-5.0,30.63,WNW,287,0.0,2.0,78,0.00,,,0.00,weatherlink.com 1.10,2013-12-24 10:59:00,
2013-12-24 05:13:00,-0.3,-6.0,30.63,West,266,1.0,3.0,78,0.00,,,0.00,weatherlink.com 1.10,2013-12-24 11:13:00,
2013-12-24 05:29:00,-0.3,-6.0,30.63,NNW,328,2.0,3.0,78,0.00,,,0.00,weatherlink.com 1.10,2013-12-24 11:29:00,
2013-12-24 05:43:00,-0.5,-6.0,30.63,NW,309,2.0,5.0,78,0.00,,,0.00,weatherlink.com 1.10,2013-12-24 11:43:00,
2013-12-24 05:59:00,-0.9,-6.0,30.62,NW,308,0.0,4.0,78,0.00,,,0.00,weatherlink.com 1.10,2013-12-24 11:59:00,
2013-12-24 06:14:00,-1.1,-6.0,30.62,West,278,0.0,1.0,80,0.00,,,0.00,weatherlink.com 1.10,2013-12-24 12:14:00,
2013-12-24 06:28:00,-1.5,-6.0,30.62,NE,37,0.0,1.0,80,0.00,,,0.00,weatherlink.com 1.10,2013-12-24 12:28:00,
2013-12-24 06:44:00,-1.3,-6.0,30.63,WNW,293,0.0,1.0,81,0.00,,,0.00,weatherlink.com 1.10,2013-12-24 12:44:00,
2013-12-24 06:59:00,-1.8,-6.0,30.63,West,273,0.0,1.0,81,0.00,,,0.00,weatherlink.com 1.10,2013-12-24 12:59:00,
2013-12-24 07:15:00,-1.9,-6.0,30.63,West,276,0.0,1.0,82,0.00,,,0.00,weatherlink.com 1.10,2013-12-24 13:15:00,
2013-12-24 07:29:00,-2.0,-6.0,30.64,WSW,256,1.0,1.0,83,0.00,,,0.00,weatherlink.com 1.10,2013-12-24 13:29:00,
2013-12-24 07:45:00,-1.8,-6.0,30.64,West,276,0.0,1.0,82,0.00,,,0.00,weatherlink.com 1.10,2013-12-24 13:45:00,
2013-12-24 07:59:00,-1.1,-6.0,30.63,ENE,60,0.0,2.0,80,0.00,,,0.00,weatherlink.com 1.10,2013-12-24 13:59:00,
2013-12-24 08:15:00,-0.6,-6.0,30.64,West,278,0.0,1.0,79,0.00,,,0.00,weatherlink.com 1.10,2013-12-24 14:15:00,
2013-12-24 08:30:00,-0.2,-5.0,30.64,WNW,295,0.0,1.0,79,0.00,,,0.00,weatherlink.com 1.10,2013-12-24 14:30:00,
2013-12-24 08:45:00,0.2,-5.0,30.66,WSW,243,0.0,2.0,77,0.00,,,0.00,weatherlink.com 1.10,2013-12-24 14:45:00,
2013-12-24 09:00:00,0.9,-4.0,30.66,West,265,1.0,3.0,78,0.00,,,0.00,weatherlink.com 1.10,2013-12-24 15:00:00,
2013-12-24 09:15:00,1.7,-4.0,30.66,West,279,0.0,4.0,77,0.00,,,0.00,weatherlink.com 1.10,2013-12-24 15:15:00,
2013-12-24 09:31:00,2.9,-3.0,30.65,ENE,63,1.0,2.0,77,0.00,,,0.00,weatherlink.com 1.10,2013-12-24 15:31:00,
2013-12-24 09:45:00,3.4,-2.0,30.66,East,94,1.0,2.0,78,0.00,,,0.00,weatherlink.com 1.10,2013-12-24 15:45:00,
2013-12-24 10:01:00,4.3,-1.0,30.65,ESE,103,1.0,3.0,77,0.00,,,0.00,weatherlink.com 1.10,2013-12-24 16:01:00,
2013-12-24 10:17:00,5.3,0.0,30.66,SW,225,1.0,4.0,79,0.00,,,0.00,weatherlink.com 1.10,2013-12-24 16:17:00,
2013-12-24 10:31:00,6.4,1.0,30.65,SSW,203,2.0,5.0,77,0.00,,,0.00,weatherlink.com 1.10,2013-12-24 16:31:00,
2013-12-24 10:46:00,7.2,1.0,30.65,South,176,3.0,5.0,77,0.00,,,0.00,weatherlink.com 1.10,2013-12-24 16:46:00,
2013-12-24 11:02:00,7.6,2.0,30.64,SE,141,2.0,4.0,78,0.00,,,0.00,weatherlink.com 1.10,2013-12-24 17:02:00,
2013-12-24 11:16:00,8.4,2.0,30.63,East,94,2.0,4.0,75,0.00,,,0.00,weatherlink.com 1.10,2013-12-24 17:16:00,
2013-12-24 11:31:00,8.8,2.0,30.63,ESE,117,2.0,5.0,74,0.00,,,0.00,weatherlink.com 1.10,2013-12-24 17:31:00,
2013-12-24 11:47:00,9.6,3.0,30.61,ESE,104,3.0,4.0,75,0.00,,,0.00,weatherlink.com 1.10,2013-12-24 17:47:00,
2013-12-24 12:02:00,10.0,4.0,30.61,SW,217,4.0,5.0,75,0.00,,,0.00,weatherlink.com 1.10,2013-12-24 18:02:00,
2013-12-24 12:16:00,10.4,4.0,30.59,SE,141,2.0,5.0,74,0.00,,,0.00,weatherlink.com 1.10,2013-12-24 18:16:00,
2013-12-24 12:33:00,11.8,5.0,30.57,East,94,4.0,4.0,74,0.00,,,0.00,weatherlink.com 1.10,2013-12-24 18:33:00,
2013-12-24 12:47:00,12.4,7.0,30.57,SE,127,1.0,5.0,77,0.00,,,0.00,weatherlink.com 1.10,2013-12-24 18:47:00,
2013-12-24 13:02:00,13.4,7.0,30.57,ESE,117,1.0,5.0,75,0.00,,,0.00,weatherlink.com 1.10,2013-12-24 19:02:00,
2013-12-24 13:18:00,14.0,7.0,30.57,SW,235,2.0,10.0,73,0.00,,,0.00,weatherlink.com 1.10,2013-12-24 19:18:00,
2013-12-24 13:33:00,14.8,9.0,30.56,SE,141,1.0,7.0,77,0.00,,,0.00,weatherlink.com 1.10,2013-12-24 19:33:00,
2013-12-24 13:48:00,15.0,8.0,30.55,SSE,158,6.0,8.0,74,0.00,,,0.00,weatherlink.com 1.10,2013-12-24 19:48:00,
2013-12-24 14:03:00,15.5,10.0,30.54,East,92,3.0,7.0,77,0.00,,,0.00,weatherlink.com 1.10,2013-12-24 20:03:00,
2013-12-24 14:18:00,16.4,10.0,30.53,ESE,114,3.0,8.0,77,0.00,,,0.00,weatherlink.com 1.10,2013-12-24 20:18:00,
2013-12-24 14:33:00,16.7,10.0,30.53,East,101,0.0,11.0,74,0.00,,,0.00,weatherlink.com 1.10,2013-12-24 20:33:00,
2013-12-24 14:47:00,16.5,11.0,30.53,East,91,3.0,4.0,77,0.00,,,0.00,weatherlink.com 1.10,2013-12-24 20:47:00,
2013-12-24 15:03:00,16.5,11.0,30.52,SE,136,0.0,5.0,77,0.00,,,0.00,weatherlink.com 1.10,2013-12-24 21:03:00,
2013-12-24 15:18:00,16.7,11.0,30.52,SSE,152,2.0,4.0,79,0.00,,,0.00,weatherlink.com 1.10,2013-12-24 21:18:00,
2013-12-24 15:34:00,16.6,11.0,30.51,ESE,121,3.0,4.0,79,0.00,,,0.00,weatherlink.com 1.10,2013-12-24 21:34:00,
2013-12-24 15:48:00,16.6,11.0,30.51,ESE,116,5.0,5.0,79,0.00,,,0.00,weatherlink.com 1.10,2013-12-24 21:48:00,
2013-12-24 16:05:00,16.7,12.0,30.50,ESE,103,3.0,4.0,80,0.00,,,0.00,weatherlink.com 1.10,2013-12-24 22:05:00,
2013-12-24 16:19:00,16.6,11.0,30.49,SE,133,2.0,5.0,80,0.00,,,0.00,weatherlink.com 1.10,2013-12-24 22:19:00,
2013-12-24 16:33:00,16.8,12.0,30.49,SW,235,0.0,3.0,82,0.00,,,0.00,weatherlink.com 1.10,2013-12-24 22:33:00,
2013-12-24 16:50:00,16.8,12.0,30.48,SSE,149,2.0,5.0,81,0.00,,,0.00,weatherlink.com 1.10,2013-12-24 22:50:00,
2013-12-24 17:04:00,16.7,12.0,30.47,ESE,119,2.0,4.0,81,0.00,,,0.00,weatherlink.com 1.10,2013-12-24 23:04:00,
2013-12-24 17:19:00,16.9,12.0,30.46,SE,125,2.0,6.0,81,0.00,,,0.00,weatherlink.com 1.10,2013-12-24 23:19:00,
2013-12-24 17:35:00,17.1,12.0,30.43,ESE,115,3.0,6.0,81,0.00,,,0.00,weatherlink.com 1.10,2013-12-24 23:35:00,
2013-12-24 17:49:00,17.3,12.0,30.43,SSE,158,2.0,8.0,81,0.00,,,0.00,weatherlink.com 1.10,2013-12-24 23:49:00,
2013-12-24 18:05:00,17.6,13.0,30.45,ESE,107,0.0,4.0,81,0.00,,,0.00,weatherlink.com 1.10,2013-12-25 00:05:00,
2013-12-24 18:20:00,17.9,13.0,30.44,ESE,123,2.0,5.0,81,0.00,,,0.00,weatherlink.com 1.10,2013-12-25 00:20:00,
2013-12-24 18:35:00,18.1,13.0,30.42,East,94,3.0,4.0,79,0.00,,,0.00,weatherlink.com 1.10,2013-12-25 00:35:00,
2013-12-24 18:50:00,18.3,12.0,30.41,ESE,115,3.0,7.0,77,0.00,,,0.00,weatherlink.com 1.10,2013-12-25 00:50:00,
2013-12-24 19:06:00,18.6,12.0,30.41,SSW,204,2.0,7.0,75,0.00,,,0.00,weatherlink.com 1.10,2013-12-25 01:06:00,
2013-12-24 19:20:00,18.7,12.0,30.41,SE,137,2.0,8.0,74,0.00,,,0.00,weatherlink.com 1.10,2013-12-25 01:20:00,
2013-12-24 19:35:00,18.8,12.0,30.41,SE,138,1.0,8.0,76,0.00,,,0.00,weatherlink.com 1.10,2013-12-25 01:35:00,
2013-12-24 19:51:00,18.8,13.0,30.42,WSW,255,3.0,4.0,77,0.00,,,0.00,weatherlink.com 1.10,2013-12-25 01:51:00,
2013-12-24 20:06:00,19.0,13.0,30.43,SE,127,1.0,5.0,77,0.00,,,0.00,weatherlink.com 1.10,2013-12-25 02:06:00,
2013-12-24 20:20:00,19.0,13.0,30.41,SE,129,2.0,6.0,77,0.00,,,0.00,weatherlink.com 1.10,2013-12-25 02:20:00,
2013-12-24 20:37:00,19.0,13.0,30.41,ESE,117,2.0,5.0,77,0.00,,,0.00,weatherlink.com 1.10,2013-12-25 02:37:00,
2013-12-24 20:51:00,19.2,13.0,30.40,East,87,4.0,5.0,78,0.00,,,0.00,weatherlink.com 1.10,2013-12-25 02:51:00,
2013-12-24 21:07:00,19.2,13.0,30.40,SE,141,1.0,5.0,78,0.00,,,0.00,weatherlink.com 1.10,2013-12-25 03:07:00,
2013-12-24 21:21:00,19.3,14.0,30.39,SE,143,2.0,4.0,79,0.00,,,0.00,weatherlink.com 1.10,2013-12-25 03:21:00,
2013-12-24 21:37:00,19.4,14.0,30.38,SE,131,2.0,5.0,79,0.00,,,0.00,weatherlink.com 1.10,2013-12-25 03:37:00,
2013-12-24 21:52:00,19.6,14.0,30.39,SE,125,1.0,4.0,79,0.00,,,0.00,weatherlink.com 1.10,2013-12-25 03:52:00,
2013-12-24 22:06:00,19.7,14.0,30.39,SE,127,2.0,4.0,79,0.00,,,0.00,weatherlink.com 1.10,2013-12-25 04:06:00,
2013-12-24 22:22:00,19.8,14.0,30.38,SE,141,2.0,5.0,79,0.00,,,0.00,weatherlink.com 1.10,2013-12-25 04:22:00,
2013-12-24 22:37:00,19.9,15.0,30.38,ESE,115,2.0,5.0,80,0.00,,,0.00,weatherlink.com 1.10,2013-12-25 04:37:00,
2013-12-24 22:51:00,20.0,15.0,30.38,SSW,212,1.0,7.0,80,0.00,,,0.00,weatherlink.com 1.10,2013-12-25 04:51:00,
2013-12-24 23:08:00,20.2,15.0,30.38,South,184,7.0,10.0,80,0.00,,,0.00,weatherlink.com 1.10,2013-12-25 05:08:00,
2013-12-24 23:22:00,20.5,15.0,30.38,ESE,115,3.0,7.0,80,0.00,,,0.00,weatherlink.com 1.10,2013-12-25 05:22:00,
2013-12-24 23:37:00,20.6,15.0,30.37,SSE,158,3.0,10.0,80,0.00,,,0.00,weatherlink.com 1.10,2013-12-25 05:37:00,
2013-12-24 23:53:00,20.8,16.0,30.37,SSE,155,2.0,6.0,80,0.00,,,0.00,weatherlink.com 1.10,2013-12-25 05:53:00,